Weather History for K5H4 - March, 2013

Change the Weather History Date:

Friday, March 15, 2013

  Actual Average (KRUG) Record (KRUG)
Temperature  
Mean Temperature 8 °F -  
Max Temperature 19 °F 33 °F 59 °F (2012)
Min Temperature -4 °F 14 °F -14 °F (1949)
Degree Days  
Heating Degree Days 58    
Moisture  
Dew Point 6 °F    
Average Humidity 88    
Maximum Humidity 100    
Minimum Humidity 78    
Precipitation  
Precipitation 0.91 in - - ()
Sea Level Pressure  
Sea Level Pressure 30.07 in    
Wind  
Wind Speed 15 mph (NE)    
Max Wind Speed 22 mph    
Max Gust Speed 32 mph    
Visibility 5 miles    
Events Snow    
Averages and records for this station are not official NWS values.
T = Trace of Precipitation, MM = Missing Value Source: NWS Daily Summary

Daily Weather History Graph

Daily Weather History Graph

Search for Another Location

Airport or City:

Trip Planner

Search our weather history database for the weather conditions in past years. The results will help you decide how hot, cold, wet, or windy it might be!

Date:

Astronomy

Mar. 15, 2013 Rise Set
Actual Time 7:52 AM CDT 7:45 PM CDT
Civil Twilight 7:21 AM CDT 8:16 PM CDT
Nautical Twilight 6:45 AM CDT 8:52 PM CDT
Astronomical Twilight 6:08 AM CDT 9:29 PM CDT
Moon 9:24 AM CDT (3/15) No Moon Set
Length of Visible Light 12h 55m
Length of Day
11h 53m
Waxing Crescent, 15% of the Moon is Illuminated
Mar 15
Waxing Crescent
Mar 19
First Quarter
Mar 27
Full
Apr 2
Last Quarter
Apr 10
New

Hourly Weather History & Observations

Time (CDT) Temp. Windchill Dew Point Humidity Pressure Visibility Wind Dir Wind Speed Gust Speed Precip Events Conditions
12:15 AM 19.4 °F 6.0 °F 17.6 °F 93% 30.11 in 10.0 mi East 13.8 mph - N/A Snow Light Snow
12:35 AM 19.4 °F 5.0 °F 15.8 °F 86% 30.12 in 4.0 mi ENE 16.1 mph - N/A Snow Light Snow
12:55 AM 19.4 °F 4.5 °F 17.6 °F 93% 30.12 in 4.0 mi ENE 17.3 mph - N/A Snow Light Snow
1:15 AM 19.4 °F 5.5 °F 17.6 °F 93% 30.11 in 2.5 mi ENE 15.0 mph - 0.01 in Snow Light Snow
1:35 AM 17.6 °F 5.0 °F 17.6 °F 100% 30.11 in 2.5 mi ENE 11.5 mph - 0.03 in Snow Light Snow
2:15 AM 17.6 °F 3.2 °F 17.6 °F 100% 30.09 in 2.0 mi ENE 15.0 mph - 0.01 in Snow Light Snow
2:35 AM 17.6 °F 2.2 °F 15.8 °F 93% 30.08 in 4.0 mi ENE 17.3 mph - 0.02 in Snow Light Snow
2:55 AM 17.6 °F 3.7 °F 15.8 °F 93% 30.09 in 2.5 mi ENE 13.8 mph - 0.03 in Snow Light Snow
3:15 AM 17.6 °F 3.2 °F 15.8 °F 93% 30.08 in 2.5 mi ENE 15.0 mph - 0.01 in Snow Light Snow
3:35 AM 17.6 °F 1.7 °F 15.8 °F 93% 30.09 in 4.0 mi NE 18.4 mph - 0.01 in Snow Light Snow
3:55 AM 15.8 °F 0.9 °F 14.0 °F 93% 30.09 in 3.0 mi NE 15.0 mph - 0.03 in Snow Light Snow
4:15 AM 15.8 °F -1.1 °F 14.0 °F 93% 30.09 in 2.0 mi NE 19.6 mph 25.3 mph 0.01 in Snow Light Snow
4:35 AM 14.0 °F -3.9 °F 12.2 °F 93% 30.09 in 1.2 mi NE 20.7 mph 25.3 mph 0.07 in Snow Light Snow
4:55 AM 14.0 °F -0.8 °F 12.2 °F 93% 30.09 in 1.8 mi ENE 13.8 mph - 0.11 in Snow Light Snow
5:15 AM 14.0 °F -3.0 °F 10.4 °F 86% 30.06 in 3.0 mi ENE 18.4 mph - 0.01 in Snow Light Snow
5:35 AM 14.0 °F -3.0 °F 10.4 °F 86% 30.07 in 4.0 mi NE 18.4 mph - 0.03 in Snow Light Snow
5:55 AM 14.0 °F -3.0 °F 10.4 °F 86% 30.08 in 2.0 mi NE 18.4 mph - 0.05 in Snow Light Snow
6:15 AM 12.2 °F -3.7 °F 10.4 °F 92% 30.06 in 3.0 mi NE 15.0 mph - 0.01 in Snow Light Snow
6:35 AM 12.2 °F -4.8 °F 8.6 °F 85% 30.06 in 3.0 mi NE 17.3 mph - 0.02 in Snow Light Snow
7:15 AM 10.4 °F -7.7 °F 8.6 °F 92% 30.06 in 7.0 mi NE 18.4 mph - N/A   Overcast
7:35 AM 10.4 °F -7.7 °F 8.6 °F 92% 30.06 in 10.0 mi ENE 18.4 mph 23.0 mph N/A   Overcast
7:55 AM 10.4 °F -7.7 °F 6.8 °F 85% 30.05 in 10.0 mi ENE 18.4 mph - N/A   Overcast
8:15 AM 10.4 °F -8.2 °F 6.8 °F 85% 30.05 in 8.0 mi ENE 19.6 mph - N/A Snow Light Snow
8:35 AM 10.4 °F -8.2 °F 6.8 °F 85% 30.04 in 5.0 mi ENE 19.6 mph - N/A Snow Light Snow
8:55 AM 8.6 °F -10.0 °F 6.8 °F 92% 30.05 in 3.0 mi ENE 18.4 mph - 0.01 in Snow Light Snow
9:15 AM 8.6 °F -9.5 °F 6.8 °F 92% 30.06 in 4.0 mi ENE 17.3 mph 23.0 mph N/A Snow Light Snow
9:35 AM 8.6 °F -10.5 °F 6.8 °F 92% 30.05 in 1.0 mi ENE 19.6 mph - 0.06 in Snow Light Snow
10:55 AM 8.6 °F -11.0 °F 5.0 °F 85% 29.99 in 0.8 mi ENE 20.7 mph - 0.08 in Snow Light Snow
11:15 AM 6.8 °F -13.8 °F 5.0 °F 92% 29.99 in 0.5 mi ENE 21.9 mph 32.2 mph 0.01 in Snow Snow
11:35 AM 6.8 °F -12.9 °F 5.0 °F 92% 29.98 in 0.8 mi ENE 19.6 mph - 0.03 in Snow Light Snow
11:55 AM 6.8 °F -9.3 °F 5.0 °F 92% 30.04 in 0.8 mi NE 12.7 mph - 0.10 in Snow Light Snow
12:15 PM 6.8 °F -11.8 °F 5.0 °F 92% 30.03 in 0.8 mi ENE 17.3 mph - 0.06 in Snow Light Snow
12:35 PM 6.8 °F -11.3 °F 5.0 °F 92% 30.01 in 1.0 mi ENE 16.1 mph - 0.10 in Snow Light Snow
12:55 PM 6.8 °F -10.0 °F 5.0 °F 92% 30.02 in 0.8 mi ENE 13.8 mph - 0.13 in Snow Light Snow
1:15 PM 6.8 °F -10.0 °F 5.0 °F 92% 30.06 in 0.5 mi NE 13.8 mph - 0.07 in Snow Snow
1:35 PM 6.8 °F -9.3 °F 5.0 °F 92% 30.05 in 0.8 mi NE 12.7 mph - 0.15 in Snow Light Snow
1:55 PM 6.8 °F -10.0 °F 3.2 °F 85% 30.03 in 5.0 mi ENE 13.8 mph - 0.16 in Snow Light Snow
2:15 PM 6.8 °F -10.0 °F 5.0 °F 92% 30.00 in 6.0 mi ENE 13.8 mph - N/A Snow Light Snow
2:35 PM 6.8 °F -10.0 °F 3.2 °F 85% 30.02 in 5.0 mi ENE 13.8 mph - N/A Snow Light Snow
2:55 PM 6.8 °F -11.8 °F 3.2 °F 85% 30.01 in 7.0 mi NE 17.3 mph - N/A Snow Light Snow
3:15 PM 6.8 °F -10.0 °F 3.2 °F 85% 30.01 in 5.0 mi NE 13.8 mph - N/A Snow Light Snow
3:35 PM 6.8 °F -10.0 °F 3.2 °F 85% 30.01 in 7.0 mi NE 13.8 mph - N/A Snow Light Snow
3:55 PM 6.8 °F -10.7 °F 1.4 °F 79% 30.01 in 5.0 mi NE 15.0 mph - N/A Snow Light Snow
4:15 PM 6.8 °F -11.3 °F 1.4 °F 79% 30.01 in 10.0 mi NE 16.1 mph - N/A   Overcast
4:35 PM 6.8 °F -11.8 °F 1.4 °F 79% 30.01 in 10.0 mi NE 17.3 mph - N/A   Overcast
4:55 PM 6.8 °F -11.3 °F 1.4 °F 79% 30.01 in 10.0 mi NE 16.1 mph - N/A   Overcast
5:15 PM 6.8 °F -10.7 °F 1.4 °F 79% 30.01 in 10.0 mi NE 15.0 mph - N/A Snow Light Snow
5:35 PM 5.0 °F -13.0 °F 1.4 °F 85% 30.02 in 6.0 mi NE 15.0 mph - N/A Snow Light Snow
5:55 PM 5.0 °F -13.6 °F 1.4 °F 85% 30.03 in 3.0 mi NE 16.1 mph - 0.01 in Snow Light Snow
6:15 PM 6.8 °F -11.3 °F 1.4 °F 79% 30.04 in 2.5 mi NE 16.1 mph - 0.01 in Snow Light Snow
6:35 PM 5.0 °F -11.6 °F 1.4 °F 85% 30.04 in 2.0 mi NE 12.7 mph - 0.04 in Snow Light Snow
6:55 PM 5.0 °F -11.6 °F 1.4 °F 85% 30.04 in 3.0 mi NE 12.7 mph - 0.05 in Snow Light Snow
7:15 PM 5.0 °F -13.6 °F 1.4 °F 85% 30.06 in 2.0 mi NE 16.1 mph - 0.01 in Snow Light Snow
7:35 PM 5.0 °F -11.6 °F 1.4 °F 85% 30.08 in 4.0 mi NE 12.7 mph - 0.02 in Snow Light Snow
7:55 PM 5.0 °F -12.3 °F 1.4 °F 85% 30.08 in 3.0 mi NE 13.8 mph - 0.04 in Snow Light Snow
8:15 PM 5.0 °F -13.0 °F 1.4 °F 85% 30.09 in 8.0 mi NE 15.0 mph - N/A Snow Light Snow
8:35 PM 5.0 °F -13.0 °F -0.4 °F 78% 30.09 in 10.0 mi NE 15.0 mph - N/A Snow Light Snow
8:55 PM 5.0 °F -11.6 °F 1.4 °F 85% 30.11 in 10.0 mi NNE 12.7 mph - N/A   Overcast
9:15 PM 5.0 °F -13.0 °F -0.4 °F 78% 30.12 in 10.0 mi NNE 15.0 mph - N/A Snow Light Snow
9:35 PM 3.2 °F -14.6 °F -0.4 °F 85% 30.11 in 10.0 mi NNE 13.8 mph - N/A Snow Light Snow
9:55 PM 1.4 °F -14.5 °F -0.4 °F 92% 30.13 in 8.0 mi NNE 10.4 mph - N/A Snow Light Snow
10:15 PM -0.4 °F -13.4 °F -2.2 °F 92% 30.14 in 10.0 mi NNE 6.9 mph - N/A Snow Light Snow
10:35 PM -0.4 °F -15.7 °F -4.0 °F 85% 30.16 in 10.0 mi North 9.2 mph - N/A   Mostly Cloudy
10:55 PM -0.4 °F -16.7 °F -4.0 °F 85% 30.16 in 10.0 mi NNE 10.4 mph - N/A   Mostly Cloudy
11:15 PM -4.0 °F -17.8 °F -7.6 °F 85% 30.16 in 10.0 mi North 6.9 mph - N/A   Scattered Clouds
11:35 PM -2.2 °F -16.8 °F -7.6 °F 78% 30.17 in 10.0 mi North 8.1 mph - N/A   Clear
11:55 PM -4.0 °F -17.8 °F -7.6 °F 85% 30.16 in 10.0 mi NNW 6.9 mph - N/A   Clear